Stations météo

réclame
Mon MeteoGroup
Ulm-Maehringen, Allemagne (10840): Température de l'air & dewpoint: 17.10.2017 09:00:00 - 23.10.2017 09:00:00 (CEST)Ulm-Maehringen, Allemagne (10840): Température de l'air 5cm & Température de l'air -5cm: 17.10.2017 09:00:00 - 23.10.2017 09:00:00 (CEST)Ulm-Maehringen, Allemagne (10840): Température de l'air -20cm & Température de l'air -100cm: 17.10.2017 09:00:00 - 23.10.2017 09:00:00 (CEST)Ulm-Maehringen, Allemagne (10840): Vitesse du vent & gusts: 17.10.2017 09:00:00 - 23.10.2017 09:00:00 (CEST)Ulm-Maehringen, Allemagne (10840): Direction du vent: 17.10.2017 09:00:00 - 23.10.2017 09:00:00 (CEST)Ulm-Maehringen, Allemagne (10840): reduced air pressure: 17.10.2017 09:00:00 - 23.10.2017 09:00:00 (CEST)Ulm-Maehringen, Allemagne (10840): visibility: 17.10.2017 09:00:00 - 23.10.2017 09:00:00 (CEST)Ulm-Maehringen, Allemagne (10840): Ensoleillement: 17.10.2017 09:00:00 - 23.10.2017 09:00:00 (CEST)Ulm-Maehringen, Allemagne (10840): Quantités de précipitations: 17.10.2017 09:00:00 - 23.10.2017 09:00:00 (CEST)
Date & Time tt [°C] td [°C] tt 5cm [°C] tt -5cm [°C] tt -20cm [°C] tt -100cm [°C] ff [km/h] ff [knt] fx [km/h] fx [knt] dd ppp [hPa] vv [km] sd [min] rr [mm]
23.10.2017 09:00:00 5,7 3,4 5,5 6,0 8,8 12,6 12 7 21 12 WSW 1021,6 70 0 0,0
23.10.2017 08:00:00 5,5 3,6 5,0 5,9 8,9 12,6 11 6 21 11 W 1021,1 70 0 0,0
23.10.2017 07:00:00 5,4 3,9 5,0 6,0 9,0 12,6 11 6 16 9 WSW 1020,9 70 0 0,0
23.10.2017 06:00:00 5,3 4,0 4,9 5,9 9,1 12,6 9 5 16 9 SW 1020,7 45 0 0,1
23.10.2017 05:00:00 5,5 3,4 4,3 5,9 9,3 12,6 9 5 13 7 SW 1020,4 70 0 0,0
23.10.2017 04:00:00 5,3 3,8 4,2 5,8 9,4 12,6 9 5 18 10 WSW 1020,1 70 0 0,0
23.10.2017 03:00:00 5,5 3,8 4,4 6,2 9,6 12,6 12 6 20 11 W 1019,9 70 0 0,0
23.10.2017 02:00:00 6,0 4,4 5,4 6,6 9,7 12,6 11 6 19 10 W 1019,9 70 0 0,1
23.10.2017 01:00:00 5,9 4,6 5,5 6,5 9,9 12,6 6 4 16 9 SW 1020,0 15 0 0,0
23.10.2017 00:00:00 6,1 4,6 5,1 6,9 10,1 12,6 13 7 20 11 WSW 1019,7 23 0 0,4
22.10.2017 23:00:00 6,1 5,0 5,6 7,0 10,2 12,6 11 6 19 11 WSW 1019,6 70 0 0,2
22.10.2017 22:00:00 5,9 5,0 5,7 7,1 10,4 12,6 14 8 23 12 SW 1019,7 19 0 0,1
22.10.2017 21:00:00 6,2 4,6 5,6 7,1 10,7 12,6 9 5 21 11 WSW 1019,3 70 0 0,1
22.10.2017 20:00:00 6,1 5,2 5,7 8,0 10,8 12,6 9 5 25 13 W 1019,0 30 0 0,7
22.10.2017 19:00:00 6,6 4,2 5,9 8,3 11,0 12,6 16 9 26 14 WNW 1018,4 19 0 0,2
22.10.2017 18:00:00 8,0 2,5 7,1 9,0 11,1 12,6 15 8 45 24 W 1017,3 70 0 0,0
22.10.2017 17:00:00 10,1 2,0 9,3 10,4 11,0 12,6 19 10 37 20 WSW 1016,4 70 9 0,0
22.10.2017 16:00:00 10,3 1,3 10,0 12,0 10,9 12,6 17 9 40 22 W 1016,0 70 42 0,0
22.10.2017 15:00:00 10,6 1,8 12,6 11,6 10,8 12,6 24 13 47 25 WSW 1016,3 70 39 0,0
22.10.2017 14:00:00 11,3 1,5 14,1 12,4 10,7 12,6 25 13 44 24 W 1016,5 54 33 0,0
22.10.2017 13:00:00 10,7 2,7 12,7 10,8 10,6 12,6 24 13 40 21 WSW 1017,5 70 14 0,0
22.10.2017 12:00:00 9,2 3,7 10,2 10,9 10,6 12,6 13 7 31 17 SW 1018,5 70 24 0,0
22.10.2017 11:00:00 8,4 3,9 8,4 9,2 10,6 12,6 19 10 32 17 SW 1018,8 70 0 0,0
22.10.2017 10:00:00 8,0 5,7 8,2 8,7 10,8 12,6 10 6 21 11 WSW 1018,8 70 17 0,0
22.10.2017 09:00:00 7,8 6,4 7,6 7,8 11,0 12,6 15 8 28 15 SW 1018,5 54 11 0,0
22.10.2017 08:00:00 7,4 6,6 6,3 7,7 11,2 12,6 15 8 24 13 SSW 1018,3 35 0 0,0
22.10.2017 07:00:00 7,8 7,0 6,7 8,5 11,4 12,6 9 5 23 12 SSW 1018,5 36 0 0,0
22.10.2017 06:00:00 8,2 6,9 7,9 8,8 11,5 12,6 11 6 23 12 SSW 1018,6 44 0 0,0
22.10.2017 05:00:00 8,4 7,2 7,9 9,2 11,7 12,6 16 9 32 18 SW 1018,9 59 0 0,0
22.10.2017 04:00:00 8,5 6,9 8,3 9,3 11,9 12,6 20 11 36 19 SW 1019,2 70 0 0,0
22.10.2017 03:00:00 8,6 7,5 8,4 9,5 12,1 12,6 19 11 37 20 SW 1019,8 69 0 0,1
22.10.2017 02:00:00 8,9 8,0 8,5 9,7 12,3 12,6 18 10 26 14 S 1019,7 35 0 4,0
22.10.2017 01:00:00 9,1 7,5 8,5 10,1 12,6 12,6 16 8 25 13 SW 1020,1 6 0 0,4
22.10.2017 00:00:00 9,0 7,0 8,7 10,4 12,8 12,6 9 5 33 18 W 1017,9 70 0 0,0
21.10.2017 23:00:00 9,5 7,2 9,0 10,9 13,0 12,6 22 12 41 22 NW 1017,5 70 0 1,3
21.10.2017 22:00:00 10,0 7,6 9,6 11,6 13,2 12,6 24 13 44 24 NW 1017,5 70 0 3,6
21.10.2017 21:00:00 10,4 9,8 10,5 12,9 13,3 12,6 25 14 49 27 NW 1016,8 2,5 0 2,2
21.10.2017 20:00:00 15,1 11,2 13,7 13,3 13,4 12,6 8 4 10 5 SSW 1015,0 29 0 0,0
21.10.2017 19:00:00 15,1 11,1 11,6 13,9 13,4 12,6 3 1 10 6 NE 1014,5 26 0 0,0
21.10.2017 18:00:00 16,7 11,0 15,1 15,4 13,3 12,6 9 5 22 12 WSW 1014,6 35 2 0,0
21.10.2017 17:00:00 17,7 11,2 17,6 16,4 13,1 12,6 13 7 27 15 SSW 1014,8 38 7 0,0
21.10.2017 16:00:00 17,9 11,2 17,8 17,7 12,7 12,6 17 9 31 17 SSW 1014,7 40 35 0,0
21.10.2017 15:00:00 18,4 11,6 20,6 18,0 12,4 12,6 19 10 27 15 SSW 1015,0 33 36 0,0
21.10.2017 14:00:00 18,0 11,2 19,7 17,9 12,0 12,6 16 9 27 15 WSW 1015,6 35 49 0,0
21.10.2017 13:00:00 17,0 11,8 18,3 17,3 11,6 12,6 18 10 29 15 SSW 1016,3 26 56 0,0
21.10.2017 12:00:00 16,4 12,2 18,8 15,9 11,4 12,6 18 10 31 17 SSW 1016,8 21 60 0,0
21.10.2017 11:00:00 14,2 11,3 15,6 13,5 11,3 12,6 17 9 29 15 SW 1017,5 13 48 0,0
21.10.2017 10:00:00 13,3 10,8 13,9 11,9 11,2 12,6 12 7 17 9 SSW 1017,8 12 24 0,0
21.10.2017 09:00:00 12,1 10,5 11,7 10,8 11,3 12,6 5 3 10 6 SW 1017,9 9 0 0,0
21.10.2017 08:00:00 11,9 10,5 11,2 10,6 11,3 12,6 4 2 9 5 WSW 1017,6 10 0 0,0
21.10.2017 07:00:00 11,9 10,4 11,4 10,6 11,3 12,6 3 2 14 7 WSW 1017,4 12 0 0,0
21.10.2017 06:00:00 12,1 10,3 11,2 10,6 11,4 12,6 11 6 21 11 SW 1017,2 14 0 0,0
21.10.2017 05:00:00 11,7 10,1 10,7 10,4 11,4 12,6 3 2 7 4 WSW 1017,3 13 0 0,0
21.10.2017 04:00:00 11,9 10,1 10,2 10,4 11,5 12,6 4 2 8 4 SSW 1017,4 14 0 0,0
21.10.2017 03:00:00 12,3 10,2 11,7 10,4 11,6 12,6 6 3 10 6 W 1017,6 15 0 0,0
21.10.2017 02:00:00 12,2 10,2 10,5 10,4 11,7 12,6 5 3 14 7 W 1017,5 14 0 0,0
21.10.2017 01:00:00 12,0 10,0 10,3 10,2 11,8 12,6 8 5 18 10 SW 1017,7 18 0 0,0
21.10.2017 00:00:00 12,0 9,9 10,5 10,2 12,0 12,6 12 6 17 9 SSW 1017,7 18 0 0,0
20.10.2017 23:00:00 12,5 9,7 10,7 10,8 12,1 12,6 8 4 20 11 SW 1017,9 24 0 0,0
20.10.2017 22:00:00 12,8 9,5 11,1 10,8 12,3 12,6 13 7 19 10 SSW 1017,5 26 0 0,0
20.10.2017 21:00:00 11,9 9,0 9,7 11,3 12,4 12,6 9 5 14 8 SSW 1017,5 34 0 0,0
20.10.2017 20:00:00 13,8 9,4 11,6 12,1 12,4 12,6 8 4 15 8 S 1017,0 37 0 0,0
20.10.2017 19:00:00 15,4 9,1 12,4 13,2 12,4 12,6 8 5 14 8 SW 1016,2 49 0 0,0
20.10.2017 18:00:00 16,1 9,2 14,9 14,6 12,2 12,6 13 7 23 13 WSW 1015,7 58 0 0,0
20.10.2017 17:00:00 17,8 8,3 17,1 15,8 12,0 12,6 9 5 20 11 WNW 1015,1 58 1 0,0
20.10.2017 16:00:00 19,2 8,4 18,9 16,5 11,6 12,6 8 4 21 11 SW 1014,3 52 2 0,0
20.10.2017 15:00:00 18,7 8,6 19,0 16,6 11,2 12,6 14 8 24 13 SSW 1014,4 38 11 0,0
20.10.2017 14:00:00 18,9 8,9 20,8 16,6 10,8 12,6 14 8 20 11 SSW 1014,5 36 48 0,0
20.10.2017 13:00:00 16,3 8,7 17,1 14,8 10,4 12,6 11 6 19 11 SSW 1015,4 37 17 0,0
20.10.2017 12:00:00 15,5 9,1 16,4 13,2 10,2 12,6 9 5 19 10 SSW 1015,6 27 8 0,0
20.10.2017 11:00:00 14,9 9,2 15,7 13,0 10,0 12,7 11 6 23 12 SW 1015,4 32 55 0,0
20.10.2017 10:00:00 11,8 8,4 11,9 10,3 10,0 12,7 14 8 22 12 WSW 1015,8 17 60 0,0
20.10.2017 09:00:00 9,0 8,4 9,0 8,1 10,1 12,7 7 4 13 7 SW 1015,8 10 37 0,0
20.10.2017 08:00:00 8,3 8,3 7,3 7,8 10,1 12,7 10 6 15 8 SW 1015,4 4,9 0 0,0
20.10.2017 07:00:00 8,1 8,1 8,0 8,1 10,2 12,7 4 2 7 4 SSW 1015,4 0,1 0 0,0
20.10.2017 06:00:00 8,1 8,1 7,9 7,8 10,3 12,7 5 3 9 5 S 1015,5 0,1 0 0,0
20.10.2017 05:00:00 6,8 6,7 6,5 7,4 10,5 12,7 4 2 8 4 WSW 1015,9 3,7 0 0,0
20.10.2017 04:00:00 7,4 7,4 5,8 7,2 10,7 12,7 4 2 4 2 NW 1015,3 2,3 0 0,0
20.10.2017 03:00:00 6,9 6,8 5,1 7,1 11,0 12,7 3 2 5 3 W 1015,5 0,5 0 0,0
20.10.2017 02:00:00 8,2 8,2 5,4 7,5 11,2 12,7 4 2 8 4 NW 1015,0 1,8 0 0,0
20.10.2017 01:00:00 8,6 8,4 5,5 8,0 11,5 12,7 7 4 10 5 N 1014,8 3,0 0 0,0
20.10.2017 00:00:00 8,7 8,5 6,4 8,4 11,7 12,7 8 5 10 5 NNW 1015,2 3,6 0 0,0
19.10.2017 23:00:00 9,6 9,4 6,0 8,9 11,9 12,7 4 2 9 5 NW 1015,3 3,7 0 0,0
19.10.2017 22:00:00 9,5 8,8 7,1 9,6 12,2 12,7 6 4 10 5 N 1015,2 8 0 0,0
19.10.2017 21:00:00 10,5 8,9 8,7 10,5 12,3 12,7 9 5 10 5 NNE 1014,9 11 0 0,0
19.10.2017 20:00:00 11,3 9,1 8,7 11,4 12,4 12,7 6 3 8 4 NNW 1014,9 16 0 0,0
19.10.2017 19:00:00 13,0 10,2 9,3 12,9 12,4 12,7 3 1 11 6 NNE 1014,4 17 6 0,0
19.10.2017 18:00:00 15,3 10,5 13,7 14,7 12,2 12,7 9 5 11 6 NE 1013,4 24 51 0,0
19.10.2017 17:00:00 17,3 9,0 18,0 16,8 11,8 12,7 8 5 11 6 E 1013,1 42 60 0,0
19.10.2017 16:00:00 18,6 7,1 21,7 18,2 11,3 12,7 10 5 12 7 E 1012,9 54 60 0,0
19.10.2017 15:00:00 18,7 5,7 21,0 18,5 10,7 12,7 7 4 10 5 SSE 1013,4 48 59 0,0
19.10.2017 14:00:00 18,1 7,0 21,1 17,5 10,2 12,7 6 3 9 5 SSE 1014,1 40 53 0,0
19.10.2017 13:00:00 15,8 7,3 18,4 15,8 9,8 12,7 7 4 10 5 SSE 1015,3 25 51 0,0
19.10.2017 12:00:00 13,5 8,5 15,6 12,6 9,5 12,7 4 2 8 4 SSE 1016,0 16 17 0,0
19.10.2017 11:00:00 11,9 8,6 12,9 10,6 9,4 12,7 5 3 8 4 S 1016,1 11 17 0,0
19.10.2017 10:00:00 9,1 7,9 10,3 8,2 9,4 12,7 0 0 5 3 N 1016,7 5 27 0,0
19.10.2017 09:00:00 7,3 7,0 7,5 6,2 9,6 12,7 3 1 5 3 WNW 1016,9 4,4 23 0,0
19.10.2017 08:00:00 3,7 3,6 1,8 4,9 9,9 12,7 3 2 4 2 W 1017,5 2,5 0 0,0
19.10.2017 07:00:00 4,9 4,9 1,5 5,2 10,1 12,7 2 1 3 2 WNW 1017,0 2,3 0 0,0
19.10.2017 06:00:00 4,7 4,6 2,0 5,6 10,4 12,7 3 1 6 3 WSW 1017,4 4,3 0 0,0
19.10.2017 05:00:00 4,8 4,4 2,9 5,9 10,7 12,7 3 2 6 4 WNW 1017,4 7 0 0,0
19.10.2017 04:00:00 4,9 4,7 3,1 6,2 10,9 12,7 5 3 8 4 W 1017,6 6 0 0,0
19.10.2017 03:00:00 5,6 5,3 3,9 6,6 11,2 12,7 2 1 8 5 WSW 1017,6 9 0 0,0
19.10.2017 02:00:00 6,0 5,9 3,2 7,1 11,5 12,7 2 1 5 3 WNW 1017,5 6 0 0,0
19.10.2017 01:00:00 6,6 6,3 4,7 7,6 11,8 12,7 3 2 8 4 W 1017,7 11 0 0,0
19.10.2017 00:00:00 7,7 7,2 4,5 8,2 12,1 12,7 3 2 5 3 NW 1017,3 17 0 0,0
18.10.2017 23:00:00 7,8 7,1 5,1 8,8 12,4 12,7 4 2 9 5 WNW 1017,4 15 0 0,0
18.10.2017 22:00:00 8,4 7,5 5,4 9,5 12,7 12,7 5 3 8 4 W 1017,0 20 0 0,0
18.10.2017 21:00:00 10,2 8,9 5,9 10,5 13,0 12,7 3 1 4 2 W 1016,3 23 0 0,0
18.10.2017 20:00:00 12,0 9,5 7,0 11,8 13,1 12,7 0 0 5 3 N 1015,9 29 0 0,0
18.10.2017 19:00:00 15,2 9,9 9,8 13,6 13,1 12,7 6 4 10 5 E 1014,8 37 22 0,0
18.10.2017 18:00:00 17,8 9,3 16,3 15,9 12,9 12,7 9 5 13 7 E 1013,9 49 60 0,0
18.10.2017 17:00:00 19,3 8,1 20,0 17,9 12,5 12,7 11 6 16 9 E 1013,5 45 60 0,0
18.10.2017 16:00:00 20,1 7,8 22,9 19,4 12,0 12,7 8 4 16 9 E 1013,5 53 60 0,0
18.10.2017 15:00:00 20,5 7,5 24,1 19,8 11,4 12,7 10 6 14 8 ENE 1013,9 46 60 0,0
18.10.2017 14:00:00 19,2 9,7 23,2 19,0 10,8 12,7 7 4 11 6 ESE 1014,7 35 60 0,0
18.10.2017 13:00:00 18,9 10,0 21,3 17,9 10,2 12,7 9 5 15 8 E 1015,2 46 60 0,0
18.10.2017 12:00:00 18,7 7,4 20,3 16,3 9,8 12,7 7 4 10 6 NNW 1015,6 52 60 0,0
18.10.2017 11:00:00 13,5 8,5 15,7 12,5 9,7 12,7 2 1 4 2 NW 1017,0 37 60 0,0
18.10.2017 10:00:00 8,7 6,8 9,3 7,7 9,9 12,7 3 1 7 4 WSW 1018,5 17 35 0,0
18.10.2017 09:00:00 5,7 5,5 3,9 5,6 10,2 12,7 5 3 7 4 W 1019,3 6 17 0,0
18.10.2017 08:00:00 5,4 5,4 1,7 5,3 10,4 12,7 3 2 6 3 WSW 1019,0 4,9 0 0,0
18.10.2017 07:00:00 6,0 6,0 1,7 5,8 10,7 12,7 2 1 6 3 SW 1019,2 3,2 0 0,0
18.10.2017 06:00:00 5,6 5,5 2,2 6,2 11,0 12,7 4 2 6 3 W 1019,7 5 0 0,0
18.10.2017 05:00:00 6,0 5,9 2,8 6,6 11,2 12,7 4 2 8 4 W 1019,7 5 0 0,0
18.10.2017 04:00:00 6,6 6,4 4,0 7,1 11,5 12,7 5 3 8 4 W 1020,0 4,5 0 0,0
18.10.2017 03:00:00 7,0 6,7 4,9 7,7 11,8 12,7 3 2 8 4 W 1020,4 7 0 0,0
18.10.2017 02:00:00 7,0 6,8 4,7 8,2 12,1 12,7 5 3 7 4 W 1020,6 11 0 0,0
18.10.2017 01:00:00 6,5 6,2 4,8 8,6 12,3 12,7 6 3 8 4 W 1021,0 2,3 0 0,0
18.10.2017 00:00:00 8,8 8,2 5,9 9,5 12,6 12,7 4 2 6 4 W 1020,8 23 0 0,0
17.10.2017 23:00:00 8,8 8,2 7,1 9,9 12,9 12,7 5 3 6 3 W 1021,0 18 0 0,0
17.10.2017 22:00:00 9,5 9,2 6,4 10,5 13,2 12,7 4 2 5 3 WNW 1020,9 14 0 0,0
17.10.2017 21:00:00 11,1 10,2 7,7 11,4 13,4 12,7 3 2 6 3 W 1020,7 18 0 0,0
17.10.2017 20:00:00 12,7 11,1 8,0 12,6 13,5 12,7 0 0 4 2 N 1020,6 23 0 0,0
17.10.2017 19:00:00 15,8 12,1 10,0 14,4 13,5 12,7 4 2 10 6 ENE 1019,7 23 25 0,0
17.10.2017 18:00:00 19,1 10,2 17,8 16,8 13,3 12,7 7 4 9 5 E 1019,1 45 60 0,0
17.10.2017 17:00:00 20,3 10,7 21,6 18,8 12,9 12,7 8 4 13 7 E 1019,2 49 60 0,0
17.10.2017 16:00:00 20,9 10,3 23,8 20,2 12,3 12,7 9 5 12 7 E 1019,6 44 60 0,0
17.10.2017 15:00:00 21,5 8,8 25,1 20,9 11,6 12,7 6 3 12 6 E 1020,1 47 60 0,0
17.10.2017 14:00:00 20,3 9,7 22,6 20,2 11,0 12,7 6 3 10 6 S 1021,3 33 60 0,0
17.10.2017 13:00:00 19,2 10,7 21,7 18,7 10,4 12,7 9 5 11 6 SSE 1022,6 31 60 0,0
17.10.2017 12:00:00 17,6 10,5 20,0 16,3 10,0 12,7 8 4 11 6 S 1023,4 28 60 0,0
17.10.2017 11:00:00 15,0 10,3 16,8 13,4 9,8 12,7 6 4 9 5 SSW 1024,3 26 60 0,0
17.10.2017 10:00:00 10,5 9,3 11,9 9,5 9,9 12,7 2 1 8 5 NW 1025,9 16 60 0,0
17.10.2017 09:00:00 6,8 6,8 7,1 6,0 10,1 12,7 2 1 6 3 WSW 1026,7 8 45 0,0

tt = Température de l'air
td = dewpoint
tt 5cm = Température de l'air 5cm
tt -5cm = Température de l'air -5cm
tt -20cm = Température de l'air -20cm
tt -100cm = Température de l'air -100cm
ff = Vitesse du vent
fx = gusts
dd = Direction du vent
ppp = reduced air pressure
vv = visibility
sd = Ensoleillement
rr = Quantités de précipitations

stations d'obs. à proximité